FW9116 Weather Reports


Display with metric or nautical units.
time (UTC)temp
F
wind
direction
speed
MPH
gust
MPH
rain 1hr
in
rain 24hr
in
rain mn
in
humidity
%
barometer
mb
20260506105556 56 5 1.0 4.0 0.00 0.00 0.00 84 1018.1
20260506105056 56 0 0.0 4.0 0.00 0.00 0.00 84 1018.0
20260506104559 56 5 1.0 4.0 0.00 0.00 0.00 84 1017.9
20260506104055 56 22 1.0 7.0 0.00 0.00 0.00 84 1017.8
20260506103555 56 10 2.0 7.0 0.00 0.00 0.00 84 1017.7
20260506103100 56 27 1.0 4.0 0.00 0.00 0.00 83 1017.8
20260506102559 57 19 1.0 4.0 0.00 0.00 0.00 83 1017.7
20260506102055 57 22 0.0 4.0 0.00 0.00 0.00 83 1017.5
20260506101610 57 5 0.0 4.0 0.00 0.00 0.00 83 1017.5
20260506101054 57 0 0.0 2.0 0.00 0.00 0.00 83 1017.5
20260506100554 57 0 0.0 4.0 0.00 0.00 0.00 83 1017.5
20260506100114 57 0 0.0 4.0 0.00 0.00 0.00 83 1017.5
20260506095558 57 0 1.0 4.0 0.00 0.00 0.00 83 1017.4
20260506095057 57 5 2.0 4.0 0.00 0.00 0.00 83 1017.4
20260506094555 57 12 1.0 3.0 0.00 0.00 0.00 83 1017.4
20260506094054 57 24 1.0 3.0 0.00 0.00 0.00 83 1017.4
20260506093556 57 11 1.0 4.0 0.00 0.00 0.00 83 1017.4
20260506093057 58 5 1.0 4.0 0.00 0.00 0.00 83 1017.4
20260506092556 58 15 1.0 4.0 0.00 0.00 0.00 83 1017.2
20260506092055 58 13 1.0 4.0 0.00 0.00 0.00 83 1017.3
20260506091556 58 26 2.0 4.0 0.00 0.00 0.00 83 1017.3
20260506091054 58 0 0.0 4.0 0.00 0.00 0.00 83 1017.3
20260506090554 58 10 1.0 4.0 0.00 0.00 0.00 83 1017.2
20260506090055 58 19 2.0 4.0 0.00 0.00 0.00 82 1017.3
20260506085554 58 12 1.0 7.0 0.00 0.00 0.00 82 1017.2
20260506085059 58 5 2.0 7.0 0.00 0.00 0.00 83 1017.2
20260506084620 58 67 1.0 4.0 0.00 0.00 0.00 83 1017.2
20260506084054 58 0 1.0 4.0 0.00 0.00 0.00 83 1017.2
20260506083556 59 28 1.0 4.0 0.00 0.00 0.00 83 1017.2
20260506083055 59 360 1.0 4.0 0.00 0.00 0.00 83 1017.2
20260506082555 59 5 1.0 4.0 0.00 0.00 0.00 84 1017.2
20260506082056 59 5 1.0 4.0 0.00 0.00 0.00 84 1017.2
20260506081601 59 0 1.0 4.0 0.00 0.00 0.00 84 1017.2
20260506081056 59 28 1.0 4.0 0.00 0.00 0.00 84 1017.2
20260506080555 59 22 1.0 3.0 0.00 0.00 0.00 84 1017.2
20260506073103 59 0 0.0 1.0 0.00 0.00 0.00 84 1016.6
20260506072553 59 0 0.0 1.0 0.00 0.00 0.00 84 1016.6
20260506072054 59 0 0.0 1.0 0.00 0.00 0.00 84 1016.6
20260506071559 59 0 0.0 1.0 0.00 0.00 0.00 83 1016.6
20260506071054 59 0 0.0 1.0 0.00 0.00 0.00 83 1016.6
20260506070555 59 0 0.0 2.0 0.00 0.00 0.00 83 1016.5
20260506070104 59 0 0.0 2.0 0.00 0.00 0.00 83 1016.4
20260506062053 60 0 0.0 0.0 0.00 0.00 0.00 82 1016.3
20260506061557 60 0 0.0 0.0 0.00 0.00 0.00 82 1016.2
20260506061054 60 0 0.0 0.0 0.00 0.00 0.00 81 1016.1
20260506060554 60 0 0.0 0.0 0.00 0.00 0.00 81 1016.2
20260506051053 60 0 0.0 0.0 0.00 0.00 0.00 79 1016.0
20260506050553 60 0 0.0 0.0 0.00 0.00 0.00 79 1016.0
20260506045054 60 0 0.0 0.0 0.00 0.00 0.00 79 1015.9
20260506044702 60 0 0.0 0.0 0.00 0.00 0.00 79 1016.0
20260506044058 61 0 0.0 0.0 0.00 0.00 0.00 80 1015.8
20260506043556 61 0 0.0 0.0 0.00 0.00 0.00 79 1015.9
20260506043101 61 0 0.0 0.0 0.00 0.00 0.00 79 1015.8
20260506042554 61 0 0.0 0.0 0.00 0.00 0.00 79 1015.7
20260506042055 61 0 0.0 0.0 0.00 0.00 0.00 79 1015.7
20260506041602 61 0 0.0 0.0 0.00 0.00 0.00 79 1015.6
20260506041055 61 0 0.0 0.0 0.00 0.00 0.00 79 1015.5
20260506040557 61 0 0.0 0.0 0.00 0.00 0.00 79 1015.5
20260506040057 61 0 0.0 0.0 0.00 0.00 0.00 78 1015.5
20260506035553 61 0 0.0 0.0 0.00 0.00 0.00 78 1015.4
20260506035053 61 0 0.0 0.0 0.00 0.00 0.00 79 1015.3
20260506034625 61 0 0.0 0.0 0.00 0.00 0.00 78 1015.3
20260506034053 61 0 0.0 0.0 0.00 0.00 0.00 78 1015.3
20260506033555 61 0 0.0 0.0 0.00 0.00 0.00 77 1015.1
20260506033058 62 0 0.0 0.0 0.00 0.00 0.00 77 1015.2
20260506032554 62 0 0.0 0.0 0.00 0.00 0.00 76 1015.1
20260506032055 62 0 0.0 0.0 0.00 0.00 0.00 77 1015.1
20260506031600 62 0 0.0 0.0 0.00 0.00 0.00 76 1015.0
20260506031058 62 0 0.0 0.0 0.00 0.00 0.00 76 1015.0
20260506030554 62 0 0.0 0.0 0.00 0.00 0.00 75 1015.0
20260506025556 62 0 0.0 0.0 0.00 0.00 0.00 75 1014.8
20260506025056 62 0 0.0 1.0 0.00 0.00 0.00 75 1014.7
20260506024557 62 0 0.0 1.0 0.00 0.00 0.00 74 1014.7
20260506024054 62 0 0.0 0.0 0.00 0.00 0.00 74 1014.7
20260506023555 62 0 0.0 0.0 0.00 0.00 0.00 73 1014.7
20260506023110 62 0 0.0 0.0 0.00 0.00 0.00 73 1014.8
20260506022554 62 0 0.0 0.0 0.00 0.00 0.00 73 1014.7
20260506022056 62 0 0.0 0.0 0.00 0.00 0.00 73 1014.8
20260506021556 62 0 0.0 0.0 0.00 0.00 0.00 72 1014.8
20260506021055 62 0 0.0 2.0 0.00 0.00 0.00 72 1014.7
20260506020554 62 0 0.0 2.0 0.00 0.00 0.00 72 1014.8
20260506020053 63 53 0.0 2.0 0.00 0.00 0.00 73 1014.7
20260506015555 63 53 0.0 2.0 0.00 0.00 0.00 72 1014.7
20260506015055 63 0 1.0 2.0 0.00 0.00 0.00 71 1014.7
20260506014555 63 0 0.0 0.0 0.00 0.00 0.00 71 1014.7
20260506014053 63 0 0.0 2.0 0.00 0.00 0.00 72 1014.8
20260506013554 63 0 0.0 3.0 0.00 0.00 0.00 72 1014.7
20260506013054 63 0 1.0 4.0 0.00 0.00 0.00 72 1014.8
20260506012553 63 81 1.0 4.0 0.00 0.00 0.00 71 1014.7
20260506012054 63 27 2.0 4.0 0.00 0.00 0.00 71 1014.7
20260506011614 63 30 2.0 4.0 0.00 0.00 0.00 72 1014.8
20260506011055 63 56 1.0 3.0 0.00 0.00 0.00 73 1014.8
20260506010555 63 55 1.0 3.0 0.00 0.00 0.00 73 1014.9
20260506005555 63 26 1.0 4.0 0.00 0.00 0.00 73 1014.8
20260506005054 63 26 0.0 4.0 0.00 0.00 0.00 73 1014.7
20260506004625 63 19 1.0 3.0 0.00 0.00 0.00 73 1014.8
20260506004054 63 22 0.0 3.0 0.00 0.00 0.00 73 1014.8
20260506003555 63 35 0.0 3.0 0.00 0.00 0.00 73 1014.9
20260506003110 62 290 0.0 3.0 0.00 0.00 0.00 74 1014.9
20260506002553 62 248 0.0 3.0 0.00 0.00 0.00 73 1014.8
20260506002053 62 0 0.0 3.0 0.00 0.00 0.00 73 1014.9
20260506001558 63 0 1.0 3.0 0.00 0.00 0.00 72 1015.0
20260506001053 63 13 0.0 3.0 0.00 0.00 0.00 72 1015.1
20260506000557 63 0 0.0 3.0 0.00 0.00 0.00 73 1015.1
20260506000057 62 24 0.0 2.0 0.00 0.00 0.00 74 1015.0
20260505235556 63 300 0.0 4.0 0.00 0.00 0.00 74 1015.0
20260505235054 63 0 0.0 4.0 0.00 0.00 0.00 73 1015.2
20260505234637 63 0 0.0 4.0 0.00 0.00 0.00 73 1015.2
20260505234059 63 5 1.0 4.0 0.00 0.00 0.00 73 1015.2
20260505233557 63 57 1.0 4.0 0.00 0.00 0.00 72 1015.2
20260505233105 63 5 1.0 4.0 0.00 0.00 0.00 72 1015.2
20260505232556 63 5 0.0 3.0 0.00 0.00 0.00 73 1015.3
20260505232053 63 299 1.0 3.0 0.00 0.00 0.00 73 1015.2
20260505231557 63 13 1.0 3.0 0.00 0.00 0.00 72 1015.3
20260505231058 63 0 0.0 3.0 0.00 0.00 0.00 72 1015.3
20260505230557 63 14 0.0 3.0 0.00 0.00 0.00 72 1015.3
20260505230057 63 325 1.0 4.0 0.00 0.00 0.00 73 1015.2
20260505225553 63 232 1.0 4.0 0.00 0.00 0.00 72 1015.3
20260505225053 63 0 0.0 3.0 0.00 0.00 0.00 72 1015.3
20260505224556 63 5 0.0 3.0 0.00 0.00 0.00 70 1015.3
20260505224056 64 300 1.0 3.0 0.00 0.00 0.00 72 1015.4
20260505223557 63 5 0.0 3.0 0.00 0.00 0.00 71 1015.4
20260505223055 63 5 0.0 2.0 0.00 0.00 0.00 72 1015.4
20260505222556 63 0 0.0 2.0 0.00 0.00 0.00 72 1015.5
20260505222055 62 360 1.0 3.0 0.00 0.00 0.00 73 1015.5
20260505221555 62 271 0.0 3.0 0.00 0.00 0.00 73 1015.5
20260505221055 63 14 0.0 2.0 0.00 0.00 0.00 73 1015.5
20260505220555 62 0 0.0 3.0 0.00 0.00 0.00 74 1015.5
20260505220105 62 13 1.0 3.0 0.00 0.00 0.00 74 1015.6
20260505215556 62 285 1.0 3.0 0.00 0.00 0.00 74 1015.6
20260505215053 62 0 0.0 3.0 0.00 0.00 0.00 74 1015.5
20260505214603 61 224 1.0 4.0 0.00 0.00 0.00 73 1015.6
20260505214054 62 226 1.0 4.0 0.00 0.00 0.00 73 1015.6
20260505213557 62 232 1.0 4.0 0.00 0.00 0.00 73 1015.6
20260505213102 62 221 0.0 2.0 0.00 0.00 0.00 74 1015.6
20260505212557 62 0 0.0 5.0 0.00 0.00 0.00 73 1015.7
20260505212055 62 175 1.0 5.0 0.00 0.00 0.00 73 1015.6
20260505211602 62 0 1.0 5.0 0.00 0.00 0.00 73 1015.6
20260505211055 61 0 2.0 5.0 0.00 0.00 0.00 74 1015.7
20260505210553 62 0 1.0 3.0 0.00 0.00 0.00 72 1015.7
20260505210056 62 5 1.0 3.0 0.00 0.00 0.00 73 1015.7
20260505205556 62 188 0.0 4.0 0.00 0.00 0.00 73 1015.7
20260505205057 62 0 1.0 4.0 0.00 0.00 0.00 74 1015.7
20260505204609 61 171 1.0 6.0 0.00 0.00 0.00 73 1015.7
20260505204056 61 175 2.0 6.0 0.00 0.00 0.00 74 1015.8
20260505203553 61 0 0.0 3.0 0.00 0.00 0.00 75 1015.8
20260505203056 61 0 0.0 3.0 0.00 0.00 0.00 74 1015.8
20260505202553 61 237 1.0 3.0 0.00 0.00 0.00 75 1015.9
20260505202056 61 118 1.0 3.0 0.00 0.00 0.00 75 1015.9
20260505201554 61 187 1.0 3.0 0.00 0.00 0.00 76 1015.9
20260505201101 61 296 1.0 3.0 0.00 0.00 0.00 75 1015.9
20260505200555 60 0 1.0 3.0 0.00 0.00 0.00 77 1015.9
20260505200059 60 305 0.0 4.0 0.00 0.00 0.00 76 1016.0
20260505195557 60 265 2.0 6.0 0.00 0.00 0.00 75 1016.0
20260505195055 60 211 1.0 6.0 0.00 0.00 0.00 76 1015.9
20260505194555 60 293 3.0 6.0 0.00 0.00 0.00 75 1015.9
20260505194056 61 0 1.0 6.0 0.00 0.00 0.00 76 1016.0
20260505193555 60 286 1.0 6.0 0.00 0.00 0.00 75 1016.0
20260505193059 60 167 1.0 5.0 0.00 0.00 0.00 77 1016.0
20260505192555 60 109 1.0 6.0 0.00 0.00 0.00 75 1016.0
20260505192053 60 0 1.0 6.0 0.00 0.00 0.00 76 1016.0
20260505191558 61 159 1.0 4.0 0.00 0.00 0.00 76 1016.0
20260505191053 60 0 1.0 6.0 0.00 0.00 0.00 76 1016.0
20260505190555 60 155 2.0 6.0 0.00 0.00 0.00 79 1016.0
20260505190055 59 100 2.0 4.0 0.00 0.00 0.00 78 1015.9
20260505185556 59 0 0.0 3.0 0.00 0.00 0.00 78 1016.0
20260505185056 59 232 0.0 3.0 0.00 0.00 0.00 79 1016.1
20260505184602 59 144 1.0 4.0 0.00 0.00 0.00 78 1016.0
20260505184056 59 142 1.0 4.0 0.00 0.00 0.00 80 1016.1
20260505183554 58 0 0.0 4.0 0.00 0.00 0.00 80 1016.3
20260505183055 58 0 1.0 4.0 0.00 0.00 0.00 80 1016.3
20260505182555 58 0 0.0 3.0 0.00 0.00 0.00 80 1016.2
20260505182101 58 0 1.0 3.0 0.00 0.00 0.00 82 1016.2
20260505181559 57 0 1.0 3.0 0.00 0.00 0.00 81 1016.2
20260505181058 57 260 0.0 3.0 0.00 0.00 0.00 81 1016.2
20260505180557 57 310 0.0 3.0 0.00 0.00 0.00 83 1016.2
20260505180103 56 304 0.0 3.0 0.00 0.00 0.00 83 1016.3
20260505175553 56 292 0.0 4.0 0.00 0.00 0.00 83 1016.3
20260505175100 56 277 1.0 4.0 0.00 0.00 0.00 83 1016.3
20260505174610 57 273 1.0 3.0 0.00 0.00 0.00 83 1016.3
20260505174056 56 0 1.0 5.0 0.00 0.00 0.00 84 1016.2
20260505173553 56 0 1.0 6.0 0.00 0.00 0.00 84 1016.2
20260505173054 56 242 1.0 6.0 0.00 0.00 0.00 84 1016.1
20260505172559 55 267 2.0 6.0 0.00 0.00 0.00 85 1016.1
20260505172056 55 287 3.0 6.0 0.00 0.00 0.00 85 1016.0
20260505171556 56 300 3.0 6.0 0.00 0.00 0.00 84 1015.9
20260505171058 56 257 0.0 4.0 0.00 0.00 0.00 85 1015.9
20260505170554 56 254 1.0 4.0 0.00 0.00 0.00 85 1015.8
20260505170136 55 0 1.0 4.0 0.00 0.00 0.00 85 1015.8
20260505165553 56 198 1.0 4.0 0.00 0.00 0.00 85 1015.8
20260505165054 55 0 0.0 4.0 0.00 0.00 0.00 86 1015.8
20260505164558 55 244 2.0 5.0 0.00 0.00 0.00 85 1015.7
20260505164055 55 123 1.0 5.0 0.00 0.00 0.00 86 1015.6
20260505163556 55 0 2.0 4.0 0.00 0.00 0.00 86 1015.7
20260505163055 55 284 1.0 5.0 0.00 0.00 0.00 87 1015.7
20260505162556 55 0 1.0 5.0 0.00 0.00 0.00 87 1015.6
20260505162054 55 170 0.0 3.0 0.00 0.00 0.00 87 1015.7
20260505161602 55 170 0.0 3.0 0.00 0.00 0.00 87 1015.6
20260505161055 55 186 0.0 2.0 0.00 0.00 0.00 87 1015.5
20260505160559 55 0 0.0 4.0 0.00 0.00 0.00 87 1015.5
20260505153100 54 0 1.0 4.0 0.00 0.00 0.00 88 1015.6
20260505152556 54 0 2.0 4.0 0.00 0.00 0.00 87 1015.5
20260505152055 54 0 0.0 4.0 0.00 0.00 0.00 88 1015.5
20260505151556 54 173 1.0 6.0 0.00 0.00 0.00 87 1015.6
20260505151055 54 0 2.0 6.0 0.00 0.00 0.00 88 1015.5
20260505150557 54 183 1.0 6.0 0.00 0.00 0.00 88 1015.6
20260505140555 53 192 1.0 4.0 0.00 0.00 0.00 87 1015.1
20260505124557 53 0 0.0 4.0 0.00 0.00 0.00 87 1014.7
20260505124055 53 0 0.0 4.0 0.00 0.00 0.00 87 1014.7
20260505123556 53 0 1.0 4.0 0.00 0.00 0.00 87 1014.7
20260505123112 53 227 0.0 6.0 0.00 0.00 0.00 87 1014.6
20260505122557 53 0 0.0 6.0 0.00 0.00 0.00 87 1014.6
20260505122055 53 128 1.0 5.0 0.00 0.00 0.00 86 1014.7
20260505121556 53 157 1.0 3.0 0.00 0.00 0.00 87 1014.6
20260505121056 54 0 0.0 3.0 0.00 0.00 0.00 87 1014.6
20260505120552 53 182 1.0 4.0 0.00 0.00 0.00 87 1014.6
20260505120059 53 171 0.0 4.0 0.00 0.00 0.00 86 1014.5
20260505115559 53 0 0.0 3.0 0.00 0.00 0.00 87 1014.6
20260505115057 53 0 0.0 4.0 0.00 0.00 0.00 86 1014.6
20260505114614 53 0 1.0 4.0 0.00 0.00 0.00 86 1014.5
20260505114057 53 0 1.0 5.0 0.00 0.00 0.00 87 1014.5
20260505113558 53 0 1.0 5.0 0.00 0.00 0.00 86 1014.6
20260505113055 53 0 1.0 4.0 0.00 0.00 0.00 87 1014.4
20260505112559 53 245 0.0 4.0 0.00 0.00 0.00 86 1014.5
20260505112053 53 0 1.0 4.0 0.00 0.00 0.00 86 1014.4
20260505111607 53 173 1.0 4.0 0.00 0.00 0.00 87 1014.5
20260505111056 53 169 1.0 4.0 0.00 0.00 0.00 87 1014.4
20260505110554 53 204 0.0 5.0 0.00 0.00 0.00 87 1014.4